Location: Caltech
(34.1382°N, 118.1253°W)
Time: 14:36:26
(UTC-07:00)

Oscar 11 - Visible Passes

Search period start: 29 August 2016 00:00
Search period end: 08 September 2016 00:00
Orbit: 613 x 627 km, 97.7° (Epoch: 28 August)

Date Brightness Start Highest point End Pass type
(mag) Time Alt. Az. Time Alt. Az. Time Alt. Az.
29 Aug 8.9 20:16:55 13° ENE 20:17:41 14° ENE 20:19:48 10° NE visible
29 Aug 8.3 21:54:06 39° WNW 21:54:06 39° WNW 21:57:30 10° NNW visible
30 Aug 8.4 20:34:39 21° ENE 20:34:56 21° ENE 20:38:10 10° NNE visible
30 Aug 9.1 22:11:50 24° WNW 22:11:50 24° WNW 22:14:31 10° NW visible
31 Aug 7.8 20:52:23 33° ENE 20:52:23 33° ENE 20:56:05 10° N visible
31 Aug 9.8 22:29:34 15° WNW 22:29:34 15° WNW 22:31:09 10° NW visible
01 Sep 7.4 21:10:08 49° NE 21:10:08 49° NE 21:13:45 10° N visible
02 Sep 7.5 21:27:53 55° N 21:27:53 55° N 21:31:15 10° NNW visible
03 Sep 9.1 20:08:26 11° ENE 20:08:45 11° ENE 20:09:44 10° NE visible
03 Sep 8.3 21:45:37 39° NW 21:45:37 39° NW 21:48:35 10° NNW visible
04 Sep 8.7 20:26:10 17° ENE 20:26:10 17° ENE 20:28:45 10° NNE visible
04 Sep 9.1 22:03:22 26° WNW 22:03:22 26° WNW 22:05:43 10° NNW visible
05 Sep 8.3 20:43:55 25° NE 20:43:55 25° NE 20:46:50 10° NNE visible
05 Sep 9.8 22:21:07 16° WNW 22:21:07 16° WNW 22:22:35 10° NW visible
06 Sep 8.0 21:01:40 34° NE 21:01:40 34° NE 21:04:37 10° N visible
06 Sep 10.3 22:38:51 10° WNW 22:38:51 10° WNW 22:38:51 10° WNW visible
07 Sep 8.0 21:19:25 39° N 21:19:25 39° N 21:22:12 10° N visible
